When you browse on this site, cookies collect data to enhance your experience and personalize the content and advertising you see.
Visit our Privacy Policy to learn more. By continuing to use the site, you agree to this use of cookies and data.
  • In France
  • List of Countries
  • For 7 days
  • Water Temperature
  • Satellite Maps
  • Weather Map
  • Weather Widgets
  • user-avatar
    Login

    Hourly Weather Salta

    Today, 19 January, Saturday

    Time Temperature Precipitation Wind Pressure Humidity
    00:00 +15°C° 0 mm 0 mps 654 mmHg 91%
    01:00 +15°C° 0 mm 0 mps 654 mmHg 93%
    02:00 +15°C° 0 mm 0 mps 654 mmHg 95%
    03:00 +15°C° 0 mm 0 mps 654 mmHg 95%
    04:00 +15°C° 0 mm 0 mps 654 mmHg 95%
    05:00 +15°C° 0 mm 0 mps 654 mmHg 95%
    06:00 +18°C° 0 mm 1 mps 654 mmHg 91%
    07:00 +18°C° 0 mm 1 mps 655 mmHg 87%
    08:00 +19°C° 0 mm 1 mps 655 mmHg 83%
    09:00 +19°C° 0 mm 2 mps 655 mmHg 78%
    10:00 +20°C° 0 mm 2 mps 655 mmHg 74%
    11:00 +23°C° 0 mm 2 mps 655 mmHg 69%
    12:00 +23°C° 0 mm 2 mps 655 mmHg 68%
    13:00 +23°C° 0 mm 2 mps 654 mmHg 66%
    14:00 +24°C° 0 mm 2 mps 654 mmHg 64%
    15:00 +24°C° 0 mm 2 mps 653 mmHg 66%
    16:00 +23°C° 0 mm 2 mps 653 mmHg 67%
    17:00 +23°C° 0 mm 2 mps 652 mmHg 69%
    18:00 +20°C° 0 mm 2 mps 652 mmHg 76%
    19:00 +20°C° 0 mm 1 mps 652 mmHg 83%
    20:00 +18°C° 0 mm 1 mps 651 mmHg 91%
    21:00 +16°C° 0 mm 0 mps 652 mmHg 92%
    22:00 +16°C° 0 mm 0 mps 653 mmHg 93%
    23:00 +16°C° 0 mm 0 mps 653 mmHg 94%

    Tomorrow, 20 January, Sunday

    Time Temperature Precipitation Wind Pressure Humidity
    00:00 +16°C° 0 mm 0 mps 653 mmHg 94%
    01:00 +15°C° 0 mm 0 mps 652 mmHg 94%
    02:00 +16°C° 0 mm 1 mps 652 mmHg 95%
    03:00 +16°C° 0 mm 1 mps 652 mmHg 94%
    04:00 +16°C° 0 mm 1 mps 651 mmHg 94%
    05:00 +15°C° 0 mm 0 mps 651 mmHg 94%
    06:00 +18°C° 0 mm 1 mps 652 mmHg 89%
    07:00 +20°C° 0 mm 1 mps 652 mmHg 84%
    08:00 +21°C° 0 mm 1 mps 653 mmHg 79%
    09:00 +23°C° 0 mm 2 mps 653 mmHg 73%
    10:00 +24°C° 0 mm 2 mps 653 mmHg 67%
    11:00 +26°C° 0 mm 2 mps 653 mmHg 61%
    12:00 +27°C° 0 mm 3 mps 653 mmHg 56%
    13:00 +28°C° 0 mm 3 mps 653 mmHg 51%
    14:00 +30°C° 0 mm 3 mps 653 mmHg 46%
    15:00 +30°C° 0 mm 3 mps 652 mmHg 46%
    16:00 +29°C° 0 mm 3 mps 651 mmHg 46%
    17:00 +29°C° 0 mm 3 mps 650 mmHg 47%
    18:00 +27°C° 0 mm 2 mps 650 mmHg 56%
    19:00 +24°C° 0 mm 1 mps 650 mmHg 66%
    20:00 +21°C° 0 mm 1 mps 649 mmHg 76%
    21:00 +21°C° 0 mm 1 mps 650 mmHg 79%
    22:00 +21°C° 0 mm 1 mps 650 mmHg 81%
    23:00 +20°C° 0 mm 1 mps 651 mmHg 83%

    Day after tomorrow, 21 January, Monday

    Time Temperature Precipitation Wind Pressure Humidity
    00:00 +18°C° 0 mm 0 mps 650 mmHg 85%
    01:00 +17°C° 0 mm 0 mps 649 mmHg 87%
    02:00 +17°C° 0 mm 0 mps 649 mmHg 89%
    03:00 +17°C° 0 mm 0 mps 649 mmHg 89%
    04:00 +17°C° 0 mm 0 mps 649 mmHg 89%
    05:00 +19°C° 0 mm 1 mps 649 mmHg 90%
    06:00 +20°C° 0 mm 1 mps 650 mmHg 83%
    07:00 +22°C° 0 mm 1 mps 651 mmHg 77%
    08:00 +23°C° 0 mm 1 mps 651 mmHg 71%
    09:00 +25°C° 0 mm 1 mps 652 mmHg 64%
    10:00 +27°C° 0 mm 2 mps 653 mmHg 57%
    11:00 +29°C° 0 mm 2 mps 653 mmHg 49%
    12:00 +30°C° 0 mm 3 mps 653 mmHg 46%
    13:00 +31°C° 0 mm 3 mps 653 mmHg 43%
    14:00 +33°C° 0 mm 3 mps 652 mmHg 40%
    15:00 +33°C° 0 mm 3 mps 652 mmHg 40%
    16:00 +31°C° 0 mm 3 mps 652 mmHg 41%
    17:00 +31°C° 0 mm 3 mps 651 mmHg 41%
    18:00 +29°C° 0 mm 2 mps 651 mmHg 49%
    19:00 +26°C° 0 mm 1 mps 651 mmHg 57%
    20:00 +24°C° 0 mm 1 mps 651 mmHg 66%
    21:00 +23°C° 0 mm 1 mps 652 mmHg 66%
    22:00 +23°C° 0 mm 1 mps 652 mmHg 67%
    23:00 +23°C° 0 mm 1 mps 652 mmHg 68%

    22 January, Tuesday

    Time Temperature Precipitation Wind Pressure Humidity
    00:00 +22°C° 0 mm 1 mps 652 mmHg 67%
    01:00 +22°C° 0 mm 1 mps 651 mmHg 67%
    02:00 +22°C° 0 mm 1 mps 651 mmHg 66%
    03:00 +22°C° 0 mm 1 mps 650 mmHg 66%
    04:00 +22°C° 0 mm 1 mps 650 mmHg 65%
    05:00 +21°C° 0 mm 1 mps 650 mmHg 65%
    06:00 +23°C° 0 mm 1 mps 650 mmHg 61%
    07:00 +25°C° 0 mm 1 mps 651 mmHg 57%
    08:00 +26°C° 0 mm 1 mps 652 mmHg 53%
    09:00 +28°C° 0 mm 2 mps 652 mmHg 49%
    10:00 +30°C° 0 mm 3 mps 652 mmHg 46%
    11:00 +33°C° 0 mm 3 mps 652 mmHg 43%
    12:00 +34°C° 0 mm 4 mps 652 mmHg 41%
    13:00 +34°C° 0 mm 4 mps 651 mmHg 40%
    14:00 +35°C° 0 mm 4 mps 651 mmHg 38%
    15:00 +35°C° 0 mm 4 mps 650 mmHg 40%
    16:00 +34°C° 0 mm 4 mps 650 mmHg 42%
    17:00 +33°C° 0 mm 3 mps 649 mmHg 44%
    18:00 +30°C° 0 mm 3 mps 649 mmHg 52%
    19:00 +28°C° 0 mm 2 mps 649 mmHg 59%
    20:00 +26°C° 0 mm 1 mps 649 mmHg 66%
    21:00 +25°C° 0 mm 1 mps 650 mmHg 68%
    22:00 +25°C° 0 mm 1 mps 650 mmHg 69%
    23:00 +24°C° 0 mm 2 mps 651 mmHg 71%

    23 January, Wednesday

    Time Temperature Precipitation Wind Pressure Humidity
    00:00 +24°C° 0.2 mm 2 mps 650 mmHg 70%
    01:00 +24°C° 0.2 mm 1 mps 650 mmHg 69%
    02:00 +24°C° 0.2 mm 1 mps 650 mmHg 68%
    03:00 +24°C° 0 mm 1 mps 650 mmHg 68%
    04:00 +24°C° 0 mm 1 mps 650 mmHg 68%
    05:00 +23°C° 0 mm 1 mps 650 mmHg 67%
    06:00 +25°C° 0 mm 1 mps 651 mmHg 62%
    07:00 +27°C° 0 mm 1 mps 652 mmHg 57%
    08:00 +28°C° 0 mm 1 mps 653 mmHg 52%
    09:00 +30°C° 0 mm 1 mps 654 mmHg 47%
    10:00 +32°C° 0 mm 1 mps 654 mmHg 42%
    11:00 +35°C° 0 mm 2 mps 654 mmHg 36%
    12:00 +35°C° 0 mm 2 mps 654 mmHg 35%
    13:00 +36°C° 0 mm 2 mps 653 mmHg 34%
    14:00 +36°C° 0 mm 2 mps 653 mmHg 33%
    15:00 +36°C° 0 mm 3 mps 652 mmHg 34%
    16:00 +35°C° 0 mm 3 mps 652 mmHg 36%
    17:00 +35°C° 0 mm 3 mps 651 mmHg 37%
    18:00 +31°C° 0 mm 2 mps 651 mmHg 45%
    19:00 +29°C° 0 mm 1 mps 651 mmHg 53%
    20:00 +27°C° 0 mm 1 mps 651 mmHg 61%
    21:00 +26°C° 0 mm 1 mps 651 mmHg 62%
    22:00 +25°C° 0 mm 1 mps 651 mmHg 64%
    23:00 +25°C° 0 mm 1 mps 652 mmHg 65%

    24 January, Thursday

    Time Temperature Precipitation Wind Pressure Humidity
    00:00 +24°C° 0 mm 1 mps 651 mmHg 66%
    01:00 +24°C° 0 mm 1 mps 651 mmHg 66%
    02:00 +24°C° 0 mm 1 mps 650 mmHg 67%
    03:00 +24°C° 0.1 mm 1 mps 650 mmHg 66%
    04:00 +23°C° 0.1 mm 1 mps 650 mmHg 66%
    05:00 +23°C° 0.1 mm 1 mps 650 mmHg 65%
    06:00 +25°C° 0 mm 1 mps 650 mmHg 61%
    07:00 +26°C° 0 mm 1 mps 651 mmHg 56%
    08:00 +28°C° 0 mm 1 mps 652 mmHg 52%
    09:00 +30°C° 0 mm 2 mps 652 mmHg 48%
    10:00 +32°C° 0 mm 2 mps 653 mmHg 44%
    11:00 +34°C° 0 mm 3 mps 653 mmHg 40%
    12:00 +35°C° 0 mm 3 mps 652 mmHg 38%
    13:00 +36°C° 0 mm 4 mps 652 mmHg 37%
    14:00 +37°C° 0 mm 4 mps 651 mmHg 35%
    15:00 +36°C° 0.1 mm 4 mps 650 mmHg 37%
    16:00 +35°C° 0.1 mm 4 mps 649 mmHg 40%
    17:00 +34°C° 0.1 mm 3 mps 649 mmHg 42%
    18:00 +31°C° 0.1 mm 3 mps 649 mmHg 49%
    19:00 +29°C° 0.1 mm 2 mps 649 mmHg 56%
    20:00 +27°C° 0.1 mm 1 mps 649 mmHg 63%
    21:00 +27°C° 0 mm 1 mps 649 mmHg 63%
    22:00 +26°C° 0 mm 1 mps 650 mmHg 64%
    23:00 +26°C° 0 mm 2 mps 650 mmHg 65%
    Show more